EN

Hourly Weather Sydney

Today, 4 December, Friday

Time Temperature Precipitation Wind Pressure Humidity
00:00 +21°C° 0 mm 3 mps 760 mmHg 91%
01:00 +20°C° 0 mm 2 mps 760 mmHg 93%
02:00 +20°C° 0 mm 2 mps 760 mmHg 93%
03:00 +20°C° 0 mm 2 mps 759 mmHg 93%
04:00 +19°C° 0 mm 2 mps 759 mmHg 91%
05:00 +21°C° 0 mm 2 mps 760 mmHg 81%
06:00 +23°C° 0 mm 2 mps 760 mmHg 72%
07:00 +24°C° 0 mm 2 mps 760 mmHg 62%
08:00 +27°C° 0 mm 2 mps 760 mmHg 49%
09:00 +30°C° 0 mm 2 mps 760 mmHg 36%
10:00 +34°C° 0 mm 2 mps 760 mmHg 17%
11:00 +36°C° 0 mm 2 mps 759 mmHg 14%
12:00 +37°C° 0 mm 3 mps 758 mmHg 11%
13:00 +40°C° 0 mm 4 mps 757 mmHg 8%
14:00 +38°C° 0 mm 4 mps 757 mmHg 12%
15:00 +36°C° 0 mm 3 mps 756 mmHg 16%
16:00 +35°C° 0 mm 3 mps 756 mmHg 18%
17:00 +31°C° 0 mm 3 mps 757 mmHg 28%
18:00 +28°C° 0 mm 3 mps 758 mmHg 38%
19:00 +26°C° 0 mm 3 mps 758 mmHg 49%
20:00 +23°C° 0 mm 4 mps 759 mmHg 57%
21:00 +22°C° 0 mm 5 mps 759 mmHg 65%
22:00 +21°C° 0 mm 5 mps 760 mmHg 73%
23:00 +21°C° 0 mm 5 mps 760 mmHg 75%

Tomorrow, 5 December, Saturday

Time Temperature Precipitation Wind Pressure Humidity
00:00 +20°C° 0 mm 4 mps 760 mmHg 77%
01:00 +20°C° 0 mm 4 mps 760 mmHg 79%
02:00 +20°C° 0 mm 4 mps 759 mmHg 77%
03:00 +20°C° 0 mm 3 mps 759 mmHg 76%
04:00 +20°C° 0 mm 3 mps 759 mmHg 75%
05:00 +21°C° 0 mm 2 mps 759 mmHg 72%
06:00 +21°C° 0 mm 2 mps 759 mmHg 69%
07:00 +23°C° 0 mm 1 mps 759 mmHg 66%
08:00 +25°C° 0 mm 2 mps 759 mmHg 60%
09:00 +27°C° 0 mm 3 mps 758 mmHg 53%
10:00 +29°C° 0 mm 4 mps 757 mmHg 47%
11:00 +32°C° 0 mm 5 mps 756 mmHg 44%
12:00 +33°C° 0 mm 6 mps 754 mmHg 40%
13:00 +35°C° 0 mm 7 mps 753 mmHg 36%
14:00 +33°C° 0.7 mm 7 mps 752 mmHg 47%
15:00 +29°C° 0.7 mm 7 mps 752 mmHg 57%
16:00 +27°C° 0.7 mm 7 mps 751 mmHg 68%
17:00 +26°C° 0.2 mm 7 mps 751 mmHg 69%
18:00 +26°C° 0.2 mm 6 mps 750 mmHg 70%
19:00 +26°C° 0.2 mm 6 mps 750 mmHg 72%
20:00 +26°C° 1.2 mm 5 mps 750 mmHg 74%
21:00 +26°C° 1.2 mm 5 mps 750 mmHg 76%
22:00 +26°C° 1.2 mm 4 mps 750 mmHg 78%
23:00 +26°C° 0 mm 5 mps 749 mmHg 75%

Day after tomorrow, 6 December, Sunday

Time Temperature Precipitation Wind Pressure Humidity
00:00 +26°C° 0 mm 5 mps 748 mmHg 71%
01:00 +26°C° 0 mm 5 mps 748 mmHg 67%
02:00 +25°C° 0 mm 5 mps 748 mmHg 66%
03:00 +25°C° 0 mm 5 mps 748 mmHg 65%
04:00 +25°C° 0 mm 5 mps 748 mmHg 64%
05:00 +26°C° 0 mm 5 mps 748 mmHg 58%
06:00 +27°C° 0 mm 6 mps 749 mmHg 52%
07:00 +28°C° 0 mm 6 mps 749 mmHg 46%
08:00 +30°C° 0 mm 6 mps 749 mmHg 37%
09:00 +33°C° 0 mm 7 mps 750 mmHg 28%
10:00 +34°C° 0 mm 8 mps 750 mmHg 19%
11:00 +35°C° 0 mm 8 mps 749 mmHg 17%
12:00 +37°C° 0 mm 8 mps 749 mmHg 15%
13:00 +38°C° 0 mm 8 mps 749 mmHg 13%
14:00 +38°C° 0 mm 8 mps 749 mmHg 13%
15:00 +36°C° 0 mm 7 mps 749 mmHg 13%
16:00 +36°C° 0 mm 7 mps 749 mmHg 13%
17:00 +34°C° 0 mm 6 mps 750 mmHg 16%
18:00 +32°C° 0 mm 5 mps 751 mmHg 20%
19:00 +28°C° 0 mm 5 mps 752 mmHg 23%
20:00 +27°C° 0 mm 4 mps 752 mmHg 27%
21:00 +25°C° 0 mm 4 mps 752 mmHg 30%
22:00 +23°C° 0 mm 4 mps 753 mmHg 34%
23:00 +22°C° 0 mm 3 mps 753 mmHg 37%

7 December, Monday

Time Temperature Precipitation Wind Pressure Humidity
00:00 +21°C° 0 mm 3 mps 753 mmHg 39%
01:00 +20°C° 0 mm 2 mps 753 mmHg 41%
02:00 +19°C° 0 mm 2 mps 753 mmHg 42%
03:00 +19°C° 0 mm 3 mps 753 mmHg 43%
04:00 +18°C° 0 mm 3 mps 753 mmHg 44%
05:00 +20°C° 0 mm 4 mps 753 mmHg 40%
06:00 +21°C° 0 mm 4 mps 753 mmHg 36%
07:00 +23°C° 0 mm 5 mps 753 mmHg 31%
08:00 +26°C° 0 mm 5 mps 753 mmHg 28%
09:00 +28°C° 0 mm 5 mps 753 mmHg 24%
10:00 +30°C° 0 mm 5 mps 753 mmHg 20%
11:00 +32°C° 0 mm 5 mps 752 mmHg 18%
12:00 +33°C° 0 mm 5 mps 751 mmHg 17%
13:00 +34°C° 0 mm 6 mps 751 mmHg 16%
14:00 +34°C° 0 mm 6 mps 750 mmHg 16%
15:00 +34°C° 0 mm 6 mps 750 mmHg 16%
16:00 +34°C° 0 mm 6 mps 750 mmHg 16%
17:00 +32°C° 0 mm 5 mps 750 mmHg 20%
18:00 +29°C° 0 mm 5 mps 751 mmHg 23%
19:00 +27°C° 0 mm 4 mps 751 mmHg 27%
20:00 +25°C° 0 mm 5 mps 752 mmHg 32%
21:00 +22°C° 0 mm 6 mps 753 mmHg 36%
22:00 +20°C° 0 mm 7 mps 753 mmHg 41%
23:00 +18°C° 0 mm 7 mps 754 mmHg 43%

8 December, Tuesday

Time Temperature Precipitation Wind Pressure Humidity
00:00 +17°C° 0 mm 7 mps 754 mmHg 45%
01:00 +16°C° 0 mm 7 mps 754 mmHg 47%
02:00 +16°C° 0 mm 7 mps 754 mmHg 47%
03:00 +15°C° 0 mm 7 mps 755 mmHg 47%
04:00 +15°C° 0 mm 7 mps 755 mmHg 47%
05:00 +15°C° 0 mm 7 mps 756 mmHg 44%
06:00 +16°C° 0 mm 7 mps 756 mmHg 42%
07:00 +16°C° 0 mm 6 mps 757 mmHg 39%
08:00 +19°C° 0 mm 6 mps 757 mmHg 34%
09:00 +21°C° 0 mm 6 mps 757 mmHg 29%
10:00 +23°C° 0 mm 6 mps 757 mmHg 24%
11:00 +23°C° 0 mm 6 mps 758 mmHg 27%
12:00 +23°C° 0 mm 7 mps 758 mmHg 29%
13:00 +23°C° 0 mm 8 mps 758 mmHg 31%
14:00 +22°C° 0 mm 8 mps 758 mmHg 35%
15:00 +21°C° 0 mm 9 mps 758 mmHg 40%
16:00 +19°C° 0 mm 9 mps 759 mmHg 45%
17:00 +18°C° 0 mm 8 mps 760 mmHg 48%
18:00 +17°C° 0 mm 7 mps 761 mmHg 51%
19:00 +16°C° 0 mm 6 mps 762 mmHg 55%
20:00 +15°C° 0 mm 6 mps 762 mmHg 58%
21:00 +15°C° 0 mm 5 mps 763 mmHg 61%
22:00 +14°C° 0 mm 5 mps 763 mmHg 64%
23:00 +14°C° 0 mm 4 mps 763 mmHg 65%

9 December, Wednesday

Time Temperature Precipitation Wind Pressure Humidity
00:00 +14°C° 0 mm 4 mps 763 mmHg 66%
01:00 +13°C° 0 mm 4 mps 763 mmHg 68%
02:00 +13°C° 0 mm 3 mps 763 mmHg 69%
03:00 +12°C° 0 mm 3 mps 763 mmHg 70%
04:00 +12°C° 0 mm 3 mps 763 mmHg 71%
05:00 +14°C° 0 mm 2 mps 764 mmHg 66%
06:00 +16°C° 0 mm 2 mps 764 mmHg 60%
07:00 +17°C° 0 mm 2 mps 764 mmHg 54%
08:00 +20°C° 0 mm 2 mps 764 mmHg 48%
09:00 +23°C° 0 mm 1 mps 764 mmHg 41%
10:00 +25°C° 0 mm 1 mps 764 mmHg 34%
11:00 +26°C° 0 mm 2 mps 763 mmHg 32%
12:00 +27°C° 0 mm 3 mps 763 mmHg 31%
13:00 +28°C° 0 mm 4 mps 762 mmHg 29%
14:00 +27°C° 0 mm 5 mps 762 mmHg 33%
15:00 +26°C° 0 mm 5 mps 762 mmHg 37%
16:00 +24°C° 0 mm 6 mps 761 mmHg 41%
17:00 +22°C° 0 mm 5 mps 762 mmHg 47%
18:00 +21°C° 0 mm 5 mps 762 mmHg 54%
19:00 +19°C° 0 mm 4 mps 763 mmHg 60%
20:00 +18°C° 0 mm 4 mps 763 mmHg 64%
21:00 +18°C° 0 mm 3 mps 764 mmHg 67%
22:00 +17°C° 0 mm 2 mps 765 mmHg 71%
23:00 +17°C° 0 mm 2 mps 765 mmHg 72%
Show more

We Need Your Consent

Meteoprog and our Service Providers may store and access personal data such as cookies, device identifiers or other similar technologies on your device and process such data to personalise content and ads, as well as provide social media features and to analyse the traffic.

  • Store and/or access information on your device

    Cookies, device identifiers or other information can be stored or accessed on your device for the purposes indicated above.

  • Personalised ads and content, ad and content measurement, audience insights, and products development

    Ads and content can be personalised based on a profile. More data can be added to better personalise ads and content. Ad and content performance can be measured. Insights about the audience who saw the ads and content can be derived. Such data can be used to develop or improve user’s experience, systems and software.

By clicking ‘I Agree’ you will allow the use of indicated cookies, device identifiers, web beacons or other similar technologies. Your settings can be changed in the browser on your device.

For certain purposes, legitimate interests may be relied on, rather than consent. You can read more about this in our Privacy and Cookie Policy.